Location: Belmont
(13.0833°N, 59.6000°W)
Time: 10:05:26
(UTC+00:00)

Lacrosse 5 rocket - Pass Details

Date: 17 September 2019
Orbit: 458 x 639 km, 57.0° (Epoch: 22 October)

Event Time Altitude Azimuth Distance (km) Brightness Sun altitude
Rises 23:37:02 0° 238° (WSW) 2,466 5.4 -24.8°
Reaches altitude 10° 23:39:36 10° 257° (WSW) 1,590 4.6 -25.4°
Maximum altitude 23:42:11 19° 304° (NW) 1,150 3.6 -26.0°
Enters shadow 23:44:15 13° 345° (NNW) 1,453 3.7 -26.5°
